Regional Weather Roundup
Issued by NWS Kansas City/Pleasant Hill, MO

Home | Current Version | Previous Version | Text Only | Print | Product List | Glossary On
Versions: 1 2 3 4 5 6 7 8 9 10 11 12 13 14 15 16 17 18 19 20 21 22 23 24 25 26 27 28 29 30 31 32 33 34 35 36 37 38 39 40 41 42 43 44 45 46 47 48 49 50
000
ASUS43 KEAX 181711
RWREAX

WEATHER ROUNDUP FOR EASTERN KANSAS AND NORTHWEST MISSOURI
NATIONAL WEATHER SERVICE KANSAS CITY/PLEASANT HILL MO
1200 PM CDT THU SEP 18 2014

KSZ040-057-103>105-MOZ028-029-037-043-181800-
...KANSAS CITY METROPOLITAN AREA...

CITY           SKY/WX    TMP DP  RH WIND       PRES   REMARKS
K.C. INTL      CLOUDY    64  60  87 E9        30.04S
K.C. DOWNTOWN  CLOUDY    66  60  81 E8        30.03S
LEES SUMMIT    CLOUDY    64  61  90 E10       30.04S
OLATHE - IXD   CLOUDY    65  62  90 E10       30.03F
OLATHE - OJC   CLOUDY    63  62  97 E9        30.02F FOG
LAWRENCE       CLOUDY    65  61  87 E7        30.03S FOG

$$

MOZ001>008-011>017-020>025-030>033-038>040-044>046-053-054-181800-
...NORTHERN AND CENTRAL MISSOURI...

CITY           SKY/WX    TMP DP  RH WIND       PRES   REMARKS
ST. JOSEPH     CLOUDY    61  58  90 SE7       30.06S
MOSBY          CLOUDY    63  59  88 E8        30.04F
WARRENSBURG    CLOUDY    63  59  88 NE9       30.03F FOG
WHITEMAN AFB   NOT AVBL
CLINTON        CLOUDY    66  64  94 NE8       30.03S
SEDALIA        CLOUDY    64  60  87 E6        30.05S
WARSAW         NOT AVBL
MARSHALL       CLOUDY    68  64  88 SE7       30.05S
CHILLICOTHE      N/A     64  57  78 E7        30.08S
MOBERLY        PTSUNNY   68  57  68 E7        30.08
KIRKSVILLE     CLOUDY    65  57  75 SE10      30.09F

$$

MOZ041-047>049-056>058-063>065-088>090-097-181800-
...EASTERN AND SOUTHERN MISSOURI...

CITY           SKY/WX    TMP DP  RH WIND       PRES   REMARKS
ST. LOUIS INTL PTSUNNY   68  55  63 E9        30.09S
SPIRIT OF STL  PTSUNNY   69  56  62 E9        30.06F
COLUMBIA       CLOUDY    64  60  87 SE9       30.06F
JEFFERSON CITY CLOUDY    66  59  78 E8        30.05F
HANNIBAL       CLOUDY    70  54  56 E7        30.09F
ROLLA          CLOUDY    63  59  87 E9        30.04F
LEBANON        CLOUDY    64  61  88 E10       30.03S
OSAGE BEACH    CLOUDY    66  59  77 E9        30.04S
SPRINGFIELD    CLOUDY    71  63  75 E7        30.00R
NEVADA         CLOUDY    72  64  78 N7        30.00F
JOPLIN         CLOUDY    69  65  86 N8        29.99R
WEST PLAINS    CLOUDY    62  59  90 E9        30.05S FOG

$$

IAZ060-094-KSZ022-034>040-054-083-096-NEZ052-066-093-181800-
...KANSAS...SOUTHEAST NEBRASKA AND IOWA...

CITY           SKY/WX    TMP DP  RH WIND       PRES   REMARKS
TOPEKA         CLOUDY    68  64  87 E9        30.02F
MANHATTAN      CLOUDY    71  65  81 SE9       30.01S
EMPORIA        CLOUDY    66  64  93 N5        30.01R
CHANUTE        CLOUDY    65  63  93 NE8       29.98F
WICHITA        MOSUNNY   79  58  48 SE21G30   30.00F
OMAHA          MOSUNNY   70  57  63 SE8       30.04S
LINCOLN        SUNNY     72  59  63 SE10      30.03S
FALLS CITY     CLOUDY    64  60  87 E9        30.05R
LAMONI         SUNNY     64  53  67 SE9       30.07S
DES MOINES     MOSUNNY   65  56  72 VRB5      30.09S

$$



USA.gov is the U.S. government's official web portal to all federal, state and local government web resources and services.